{"data":{"norad_id":52095,"epoch":"2026-09-19T16:25:42.913344Z","epoch_age_seconds":125856,"freshness":"FRESH","line1":"1 52095U 22029H   26262.68452446 -.00000829  00000+0 -13412-4 0  9998","line2":"2 52095  53.1586 281.4707 0001125  97.9385 262.1746 15.34389300250179","mean_motion":15.343893,"eccentricity":0.0001125,"inclination_deg":53.1586,"raan_deg":281.4707,"arg_perigee_deg":97.9385,"mean_anomaly_deg":262.1746,"bstar":-1.3412e-5,"rev_number":25017,"period_min":93.848412524775,"perigee_km":461.965444942,"apogee_km":463.50464115168,"semimajor_km":6840.8720430468,"source":"CELESTRAK","updated_at":"2026-09-20T09:00:39.984841Z"}}